Time,TemperatureF,DewpointF,PressureIn,WindDirection,WindDirectionDegrees,WindSpeedMPH,WindSpeedGustMPH,Humidity,HourlyPrecipIn,Conditions,Clouds,dailyrainin,SoftwareType,DateUTC
2017-07-22 00:00:00,86.9,69.3,29.81,SSE,165,0.0,0.0,56,0.00,,,0.00,Wunderground v.1.15,2017-07-22 05:00:00,
2017-07-22 00:10:00,86.6,69.6,29.81,South,180,0.0,0.0,57,0.00,,,0.00,Wunderground v.1.15,2017-07-22 05:10:00,
2017-07-22 00:15:00,86.4,69.4,29.81,South,177,0.0,0.0,57,0.00,,,0.00,Wunderground v.1.15,2017-07-22 05:15:00,
2017-07-22 00:25:00,86.2,69.2,29.81,South,181,0.0,0.0,57,0.00,,,0.00,Wunderground v.1.15,2017-07-22 05:25:00,
2017-07-22 00:35:00,85.9,69.4,29.81,South,182,0.0,0.0,58,0.00,,,0.00,Wunderground v.1.15,2017-07-22 05:35:00,
2017-07-22 00:45:00,85.7,69.2,29.81,South,182,0.0,0.0,58,0.00,,,0.00,Wunderground v.1.15,2017-07-22 05:45:00,
2017-07-22 00:55:00,85.5,69.0,29.81,South,175,0.0,0.0,58,0.00,,,0.00,Wunderground v.1.15,2017-07-22 05:55:00,
2017-07-22 01:00:00,85.4,68.9,29.81,South,182,0.0,0.0,58,0.00,,,0.00,Wunderground v.1.15,2017-07-22 06:00:00,
2017-07-22 01:10:00,85.2,68.8,29.81,South,172,0.0,0.0,58,0.00,,,0.00,Wunderground v.1.15,2017-07-22 06:10:00,
2017-07-22 01:20:00,85.2,68.8,29.81,South,177,0.0,0.0,58,0.00,,,0.00,Wunderground v.1.15,2017-07-22 06:20:00,
2017-07-22 01:25:00,85.2,68.8,29.81,South,178,0.0,0.0,58,0.00,,,0.00,Wunderground v.1.15,2017-07-22 06:25:00,
2017-07-22 01:35:00,85.0,68.6,29.81,South,188,0.0,0.0,58,0.00,,,0.00,Wunderground v.1.15,2017-07-22 06:35:00,
2017-07-22 01:45:00,84.7,68.8,29.82,SSW,194,0.0,0.0,59,0.00,,,0.00,Wunderground v.1.15,2017-07-22 06:45:00,
2017-07-22 01:50:00,84.5,68.6,29.81,SSW,200,0.0,0.0,59,0.00,,,0.00,Wunderground v.1.15,2017-07-22 06:50:00,
2017-07-22 02:00:00,83.9,68.5,29.82,SSW,206,0.0,0.0,60,0.00,,,0.00,Wunderground v.1.15,2017-07-22 07:00:00,
2017-07-22 02:10:00,83.7,68.3,29.82,SSW,208,0.0,0.0,60,0.00,,,0.00,Wunderground v.1.15,2017-07-22 07:10:00,
2017-07-22 02:15:00,83.5,68.6,29.82,SSW,202,0.0,0.0,61,0.00,,,0.00,Wunderground v.1.15,2017-07-22 07:15:00,
2017-07-22 02:25:00,83.2,68.3,29.82,SSW,210,0.0,0.0,61,0.00,,,0.00,Wunderground v.1.15,2017-07-22 07:25:00,
2017-07-22 02:30:00,83.0,68.2,29.82,SW,215,0.0,0.0,61,0.00,,,0.00,Wunderground v.1.15,2017-07-22 07:30:00,
2017-07-22 02:40:00,82.7,68.4,29.81,SSW,199,0.0,0.0,62,0.00,,,0.00,Wunderground v.1.15,2017-07-22 07:40:00,
2017-07-22 02:45:00,82.6,68.3,29.81,SSW,194,0.0,0.0,62,0.00,,,0.00,Wunderground v.1.15,2017-07-22 07:45:00,
2017-07-22 02:55:00,82.1,68.3,29.81,SSW,200,0.0,0.0,63,0.00,,,0.00,Wunderground v.1.15,2017-07-22 07:55:00,
2017-07-22 03:00:00,81.9,68.5,29.81,SSW,210,0.0,0.0,64,0.00,,,0.00,Wunderground v.1.15,2017-07-22 08:00:00,
2017-07-22 03:10:00,81.6,68.2,29.80,SSW,195,0.0,0.0,64,0.00,,,0.00,Wunderground v.1.15,2017-07-22 08:10:00,
2017-07-22 03:20:00,81.4,68.1,29.80,SSW,200,0.0,0.0,64,0.00,,,0.00,Wunderground v.1.15,2017-07-22 08:20:00,
2017-07-22 03:30:00,81.1,68.2,29.80,SSW,202,0.0,0.0,65,0.00,,,0.00,Wunderground v.1.15,2017-07-22 08:30:00,
2017-07-22 03:40:00,80.7,67.8,29.80,SSW,204,0.0,0.0,65,0.00,,,0.00,Wunderground v.1.15,2017-07-22 08:40:00,
2017-07-22 03:50:00,80.6,68.2,29.80,SSW,200,0.0,0.0,66,0.00,,,0.00,Wunderground v.1.15,2017-07-22 08:50:00,
2017-07-22 04:00:00,80.5,68.1,29.80,SSW,192,0.0,0.0,66,0.00,,,0.00,Wunderground v.1.15,2017-07-22 09:00:00,
2017-07-22 04:10:00,80.4,68.0,29.80,SSW,198,0.0,0.0,66,0.00,,,0.00,Wunderground v.1.15,2017-07-22 09:10:00,
2017-07-22 04:15:00,80.4,68.4,29.80,SSW,203,0.0,0.0,67,0.00,,,0.00,Wunderground v.1.15,2017-07-22 09:15:00,
2017-07-22 04:25:00,80.5,68.5,29.79,South,186,0.0,0.0,67,0.00,,,0.00,Wunderground v.1.15,2017-07-22 09:25:00,
2017-07-22 04:35:00,80.6,68.2,29.79,SSW,203,0.0,0.0,66,0.00,,,0.00,Wunderground v.1.15,2017-07-22 09:35:00,
2017-07-22 04:40:00,80.7,68.3,29.80,SW,216,0.0,0.0,66,0.00,,,0.00,Wunderground v.1.15,2017-07-22 09:40:00,
2017-07-22 04:50:00,80.8,68.4,29.80,SSW,196,0.0,0.0,66,0.00,,,0.00,Wunderground v.1.15,2017-07-22 09:50:00,
2017-07-22 04:55:00,80.7,68.7,29.80,SSW,204,0.0,0.0,67,0.00,,,0.00,Wunderground v.1.15,2017-07-22 09:55:00,
2017-07-22 05:01:00,80.6,68.6,29.80,SSW,202,0.0,0.0,67,0.00,,,0.00,Wunderground v.1.15,2017-07-22 10:01:00,
2017-07-22 05:10:00,80.4,68.4,29.81,SSW,208,0.0,0.0,67,0.00,,,0.00,Wunderground v.1.15,2017-07-22 10:10:00,
2017-07-22 05:20:00,80.2,68.7,29.81,SSW,204,0.0,0.0,68,0.00,,,0.00,Wunderground v.1.15,2017-07-22 10:20:00,
2017-07-22 05:30:00,79.8,68.7,29.81,SSW,199,0.0,0.0,69,0.00,,,0.00,Wunderground v.1.15,2017-07-22 10:30:00,
2017-07-22 05:35:00,79.6,68.5,29.81,SSW,192,0.0,0.0,69,0.00,,,0.00,Wunderground v.1.15,2017-07-22 10:35:00,
2017-07-22 05:45:00,79.1,68.5,29.81,SSW,204,0.0,0.0,70,0.00,,,0.00,Wunderground v.1.15,2017-07-22 10:45:00,
2017-07-22 05:55:00,78.7,68.5,29.81,SSW,211,0.0,0.0,71,0.00,,,0.00,Wunderground v.1.15,2017-07-22 10:55:00,
2017-07-22 06:00:00,78.4,68.2,29.81,SSW,199,0.0,0.0,71,0.00,,,0.00,Wunderground v.1.15,2017-07-22 11:00:00,
2017-07-22 06:10:00,77.9,68.5,29.81,SSW,192,0.0,0.0,73,0.00,,,0.00,Wunderground v.1.15,2017-07-22 11:10:00,
2017-07-22 06:20:00,77.5,68.6,29.81,SSW,194,0.0,0.0,74,0.00,,,0.00,Wunderground v.1.15,2017-07-22 11:20:00,
2017-07-22 06:30:00,77.2,68.3,29.81,SSW,192,0.0,0.0,74,0.00,,,0.00,Wunderground v.1.15,2017-07-22 11:30:00,
2017-07-22 06:35:00,77.1,68.6,29.81,SSW,192,0.0,0.0,75,0.00,,,0.00,Wunderground v.1.15,2017-07-22 11:35:00,
2017-07-22 06:45:00,77.1,68.6,29.82,SSW,197,0.0,0.0,75,0.00,,,0.00,Wunderground v.1.15,2017-07-22 11:45:00,
2017-07-22 06:55:00,77.1,68.6,29.81,SSW,205,0.0,0.0,75,0.00,,,0.00,Wunderground v.1.15,2017-07-22 11:55:00,
2017-07-22 07:00:00,77.2,68.7,29.81,SSW,203,0.0,0.0,75,0.00,,,0.00,Wunderground v.1.15,2017-07-22 12:00:00,
2017-07-22 07:10:00,77.6,69.0,29.81,South,190,0.0,0.0,75,0.00,,,0.00,Wunderground v.1.15,2017-07-22 12:10:00,
2017-07-22 07:20:00,78.2,69.2,29.81,South,182,0.0,0.0,74,0.00,,,0.00,Wunderground v.1.15,2017-07-22 12:20:00,
2017-07-22 07:25:00,78.6,69.6,29.81,South,191,0.0,0.0,74,0.00,,,0.00,Wunderground v.1.15,2017-07-22 12:25:00,
2017-07-22 07:35:00,79.4,69.6,29.81,SSW,207,0.0,0.0,72,0.00,,,0.00,Wunderground v.1.15,2017-07-22 12:35:00,
2017-07-22 07:45:00,80.3,70.0,29.81,SSW,199,0.0,0.0,71,0.00,,,0.00,Wunderground v.1.15,2017-07-22 12:45:00,
2017-07-22 07:55:00,81.1,70.4,29.81,SSW,207,0.0,0.0,70,0.00,,,0.00,Wunderground v.1.15,2017-07-22 12:55:00,
2017-07-22 08:05:00,82.1,70.5,29.81,SSW,207,0.0,0.0,68,0.00,,,0.00,Wunderground v.1.15,2017-07-22 13:05:00,
2017-07-22 08:10:00,82.6,70.5,29.81,South,188,0.0,0.0,67,0.00,,,0.00,Wunderground v.1.15,2017-07-22 13:10:00,
2017-07-22 08:20:00,83.6,70.6,29.81,South,189,0.0,0.0,65,0.00,,,0.00,Wunderground v.1.15,2017-07-22 13:20:00,
2017-07-22 08:25:00,84.0,71.0,29.81,South,178,0.0,0.0,65,0.00,,,0.00,Wunderground v.1.15,2017-07-22 13:25:00,
2017-07-22 08:35:00,84.6,71.1,29.81,South,178,0.0,0.0,64,0.00,,,0.00,Wunderground v.1.15,2017-07-22 13:35:00,
2017-07-22 08:40:00,85.0,71.0,29.81,SSW,204,0.0,0.0,63,0.00,,,0.00,Wunderground v.1.15,2017-07-22 13:40:00,
2017-07-22 08:50:00,86.0,71.0,29.81,SSW,203,0.0,0.0,61,0.00,,,0.00,Wunderground v.1.15,2017-07-22 13:50:00,
2017-07-22 09:00:00,87.0,70.9,29.81,SW,223,0.0,0.0,59,0.00,,,0.00,Wunderground v.1.15,2017-07-22 14:00:00,
2017-07-22 09:10:00,87.6,71.5,29.81,SSW,209,0.0,0.0,59,0.00,,,0.00,Wunderground v.1.15,2017-07-22 14:10:00,